Location: Bothwell
(42.3833°S, 147.0000°E)
Time: 22:52:51
(UTC+10:00)

CUTE 1.7 + AOD 2 - Pass Details

Date: 08 February 2023
Orbit: 584 x 601 km, 97.7° (Epoch: 02 April)

Event Time Altitude Azimuth Distance (km) Brightness Sun altitude
Exits shadow 03:58:10 56° 31° (NNE) 715 ? -22.6°
Maximum altitude 03:59:01 79° 104° (ESE) 613 ? -22.5°
Drops below altitude 10° 04:03:16 10° 190° (S) 1,954 ? -22.0°
Sets 04:05:27 0° 191° (S) 2,867 ? -21.7°
